Location: Elstree
(51.6403°N, 0.2969°W)
Time: 14:16:23
(UTC+00:00)

NOSS 3-3 (A) - Pass Details

Date: 03 March 2021
Orbit: 815 x 1397 km, 63.4° (Epoch: 13 April)

Event Time Altitude Azimuth Distance (km) Brightness Sun altitude
Rises 20:05:59 0° 313° (NW) 3,874 8.2 -22.4°
Reaches altitude 10° 20:08:30 10° 315° (NW) 2,996 7.4 -22.7°
Maximum altitude 20:15:47 77° 42° (NE) 1,270 4.4 -23.8°
Enters shadow 20:18:42 44° 119° (ESE) 1,712 4.7 -24.2°
